Weather History for Mayport NS, FL

Change the Weather History Date:

Wednesday, October 9, 2013

  Actual Average Record
Temperature  
Mean Temperature 66 °F -  
Max Temperature 72 °F 78 °F 86 °F (1997)
Min Temperature 61 °F 68 °F 53 °F (2000)
Cooling Degree Days 2    
Growing Degree Days 16 (Base 50)    
Moisture  
Dew Point 62 °F    
Average Humidity 90    
Maximum Humidity 97    
Minimum Humidity 71    
Precipitation  
Precipitation 0.01 in - - ()
Sea Level Pressure  
Sea Level Pressure 30.05 in    
Wind  
Wind Speed 8 mph (NNW)    
Max Wind Speed 12 mph    
Max Gust Speed 18 mph    
Visibility 7 miles    
Events      
Averages and records for this station are not official NWS values.
T = Trace of Precipitation, MM = Missing Value Source: NWS Daily Summary

Daily Weather History Graph

Daily Weather History Graph

Search for Another Location

Airport:

Trip Planner

Search our weather history database for the weather conditions in past years. The results will help you decide how hot, cold, wet, or windy it might be!

Date:

Astronomy

Oct. 09, 2013 Rise Set
Actual Time 7:24 AM EDT 7:01 PM EDT
Civil Twilight 7:00 AM EDT 7:25 PM EDT
Nautical Twilight 6:32 AM EDT 7:53 PM EDT
Astronomical Twilight 6:04 AM EDT 8:20 PM EDT
Moon 12:02 PM EDT (10/9) 10:50 PM EDT (10/9)
Length of Visible Light 12h 25m
Length of Day
11h 36m
Waxing Crescent, 25% of the Moon is Illuminated
Oct 9
Waxing Crescent
Oct 11
First Quarter
Oct 18
Full
Oct 26
Last Quarter
Nov 3
New

Hourly Weather History & Observations

Time (EDT) Temp. Dew Point Humidity Pressure Visibility Wind Dir Wind Speed Gust Speed Precip Events Conditions
12:07 AM 66.9 °F 64.9 °F 93% 30.01 in 6.0 mi NNW 9.2 mph 16.1 mph N/A   Overcast
12:52 AM 66.0 °F 64.0 °F 93% 30.01 in 7.0 mi NNW 9.2 mph - N/A   Overcast
1:52 AM 64.9 °F 64.0 °F 97% 30.02 in 8.0 mi North 9.2 mph - N/A   Overcast
2:52 AM 64.0 °F 63.0 °F 96% 30.01 in 4.0 mi North 10.4 mph - N/A   Overcast
3:21 AM 64.0 °F 62.1 °F 93% 30.01 in 5.0 mi North 11.5 mph 17.3 mph N/A   Overcast
3:52 AM 63.0 °F 62.1 °F 97% 30.02 in 4.0 mi NNW 9.2 mph 16.1 mph N/A   Overcast
4:52 AM 63.0 °F 62.1 °F 97% 30.02 in 5.0 mi NNW 9.2 mph 17.3 mph N/A   Overcast
5:52 AM 63.0 °F 61.0 °F 93% 30.03 in 6.0 mi North 9.2 mph 18.4 mph N/A   Overcast
6:12 AM 63.0 °F 62.1 °F 97% 30.03 in 4.0 mi North 10.4 mph 17.3 mph 0.00 in   Light Drizzle
6:52 AM 62.1 °F 61.0 °F 96% 30.04 in 4.0 mi North 5.8 mph - 0.00 in   Light Drizzle
7:52 AM 62.1 °F 61.0 °F 96% 30.05 in 4.0 mi North 10.4 mph - 0.01 in   Light Drizzle
8:52 AM 62.1 °F 61.0 °F 96% 30.07 in 4.0 mi NNW 9.2 mph 18.4 mph 0.00 in   Light Drizzle
9:19 AM 62.1 °F 61.0 °F 96% 30.08 in 4.0 mi NNW 9.2 mph - 0.00 in   Light Drizzle
9:52 AM 61.0 °F 60.1 °F 97% 30.08 in 4.0 mi NNW 9.2 mph - 0.00 in   Light Drizzle
10:52 AM 61.0 °F 60.1 °F 97% 30.09 in 7.0 mi NW 6.9 mph - 0.00 in   Overcast
11:52 AM 61.0 °F 60.1 °F 97% 30.10 in 7.0 mi Variable 5.8 mph - N/A   Overcast
12:52 PM 62.1 °F 60.1 °F 93% 30.10 in 7.0 mi Variable 5.8 mph - N/A   Overcast
1:52 PM 63.0 °F 60.1 °F 90% 30.08 in 7.0 mi North 11.5 mph - N/A   Overcast
2:19 PM 63.0 °F 60.1 °F 90% 30.07 in 10.0 mi Variable 6.9 mph - N/A   Overcast
2:52 PM 64.0 °F 61.0 °F 90% 30.06 in 10.0 mi WNW 9.2 mph - N/A   Overcast
3:39 PM 66.9 °F 61.0 °F 81% 30.06 in 10.0 mi NNW 6.9 mph - N/A   Overcast
3:52 PM 68.0 °F 61.0 °F 78% 30.06 in 10.0 mi NNW 9.2 mph - N/A   Mostly Cloudy
4:21 PM 71.1 °F 62.1 °F 73% 30.05 in 10.0 mi North 9.2 mph - N/A   Scattered Clouds
4:52 PM 72.0 °F 62.1 °F 71% 30.04 in 10.0 mi North 8.1 mph - N/A   Partly Cloudy
5:52 PM 72.0 °F 62.1 °F 71% 30.04 in 10.0 mi Variable 3.5 mph - N/A   Partly Cloudy
6:52 PM 68.0 °F 64.0 °F 87% 30.04 in 10.0 mi Calm Calm - N/A   Partly Cloudy
7:52 PM 66.0 °F 63.0 °F 90% 30.04 in 10.0 mi SW 3.5 mph - N/A   Partly Cloudy
8:52 PM 68.0 °F 62.1 °F 81% 30.05 in 10.0 mi Calm Calm - N/A   Partly Cloudy
9:52 PM 69.1 °F 64.0 °F 84% 30.07 in 10.0 mi SW 5.8 mph - N/A   Mostly Cloudy
10:52 PM 66.9 °F 64.0 °F 90% 30.07 in 10.0 mi WSW 6.9 mph - N/A   Mostly Cloudy
11:52 PM 66.9 °F 64.0 °F 90% 30.06 in 10.0 mi WSW 4.6 mph - N/A   Scattered Clouds